This demonstration page uses our WeatherBlox Daily Observations layout. Learn more.

Left ArrowRight Arrow

39.92423, -83.80882

Hourly Observations for August 6, 2020

Temp ( °F °C ) Dew Point ( °F °C ) Humidity (%) Winds ( mph kmh ) Pressure ( in mb ) Visibility ( mi km ) Precip ( " mm )
12:56 am 00:56 Clear 56 13.3 56 13.3 100 100 N N/A 30.12 1020 10 16 N/A
1:56 am 01:56 Clear 56 13.3 56 13.3 100 100 ENE 3 6 30.11 1020 10 16 N/A
2:56 am 02:56 Clear 55 12.8 55 12.8 100 100 N N/A 30.11 1020 10 16 N/A
3:56 am 03:56 Clear 54 12.2 54 12.2 100 100 N N/A 30.11 1020 10 16 N/A
4:56 am 04:56 Partly Cloudy 55 12.8 55 12.8 100 100 N N/A 30.11 1020 10 16 N/A
5:56 am 05:56 Mostly Cloudy 54 12.2 54 12.2 100 100 ENE 3 6 30.11 1020 10 16 N/A
6:56 am 06:56 Mostly Sunny 55 12.8 55 12.8 100 100 NE 3 6 30.13 1020 10 16 N/A
7:56 am 07:56 Sunny 59 15 57 13.9 93 93 ENE 3 6 30.13 1020 10 16 N/A
8:56 am 08:56 Mostly Cloudy 64 17.8 62 16.7 93 93 E 5 7 30.13 1020 10 16 N/A
9:56 am 09:56 Cloudy 67 19.4 61 16.1 81 81 E 6 9 30.14 1021 10 16 N/A
10:56 am 10:56 Sunny 71 21.7 60 15.6 68 68 VRB 6 9 30.14 1021 10 16 N/A
11:56 am 11:56 Cloudy 73 22.8 57 13.9 57 57 VRB 3 6 30.14 1021 10 16 N/A
12:56 pm 12:56 Partly Cloudy 75 23.9 57 13.9 54 54 N 7 11 30.13 1020 10 16 N/A
1:56 pm 13:56 Cloudy 75 23.9 56 13.3 52 52 N N/A 30.12 1020 10 16 N/A
2:56 pm 14:56 Mostly Cloudy 77 25 58 14.4 52 52 NNW 6 9 30.11 1020 10 16 N/A
3:56 pm 15:56 Mostly Cloudy 77 25 59 15 54 54 WNW 5 7 30.10 1019 10 16 N/A
4:56 pm 16:56 Mostly Cloudy 76 24.4 58 14.4 54 54 WNW 5 7 30.09 1019 10 16 N/A
5:56 pm 17:56 Cloudy 75 23.9 60 15.6 60 60 WNW 7 11 30.09 1019 10 16 N/A
6:56 pm 18:56 Cloudy 74 23.3 60 15.6 62 62 NNW 6 9 30.09 1019 10 16 N/A
7:56 pm 19:56 Partly Cloudy 72 22.2 61 16.1 68 68 NNW 5 7 30.09 1019 10 16 N/A
8:56 pm 20:56 Mostly Clear 67 19.4 63 17.2 87 87 N N/A 30.09 1019 10 16 N/A
9:56 pm 21:56 Partly Cloudy 66 18.9 62 16.7 87 87 ENE 3 6 30.09 1019 10 16 N/A
10:56 pm 22:56 Mostly Clear 64 17.8 62 16.7 93 93 N N/A 30.09 1019 10 16 N/A
11:56 pm 23:56 Clear 62 16.7 62 16.7 100 100 N 5 7 30.10 1019 10 16 N/A

Powered by AerisWeather